Temp
1 1 1 1 1 2 2 2 2 3 3 3 4 4 4 4 5 5 5 5 5 6 6 6 6 6 6 7 7 7 7 7 7 7 7 7 5 6 6 8 8 8 8 8 8 8 8
1 1 1 1 1 1 2 2 2 2 2 2 3 3 4 4 4 4 5 5 5 5 6 6 6 6 6 7 6 7 7 7 7 7 7 6 5 6 7 7 8 8 8 8 8 7 8
1 1 1 1 2 2 2 1 2 2 2 2 2 2 2 3 3 3 4 4 5 5 5 6 6 6 7 8 6 6 7 7 7 7 7 6 5 6 6 7 7 8 8 8 8 7 7
1 1 2 1 1 1 2 2 2 2 2 2 2 2 2 2 2 3 3 3 4 5 5 5 5 6 7 7 7 7 6 7 7 7 7 5 5 5 5 6 7 7 8 8 7 7 7
0 1 1 1 1 1 1 2 2 2 2 2 2 2 2 2 2 2 2 3 3 4 4 5 5 5 7 8 7 7 6 6 6 7 6 5 5 6 5 6 7 8 9 10 8 7 7
-1 -0 -0 0 0 0 1 1 1 2 2 2 2 2 2 2 2 2 2 2 2 3 3 4 4 5 6 6 7 7 6 6 4 5 5 6 5 5 6 7 8 9 10 10 9 7 7
-2 -2 -2 -1 -1 -1 -1 -0 0 0 1 1 2 2 2 2 2 2 2 2 2 2 2 4 3 5 4 4 6 6 6 6 4 4 4 4 4 5 7 8 8 9 9 9 8 8 8
-3 -3 -3 -3 -2 -2 -2 -2 -1 -1 -0 -0 1 1 1 1 1 1 1 1 0 0 2 3 4 4 5 5 5 6 5 5 4 5 4 5 5 6 7 8 8 8 8 9 9 8 8
-3 -3 -2 -2 -2 -2 -2 -2 -3 -2 -2 -1 -1 0 1 1 1 1 1 1 0 1 1 4 5 5 6 4 5 4 4 5 4 4 5 6 7 7 7 8 7 8 8 9 9 7 8
-3 -3 -3 -2 -2 -2 -2 -2 -3 -3 -3 -3 -2 -1 -1 0 -0 -1 -0 -0 -1 -0 -0 2 5 6 6 4 4 5 4 5 4 5 5 6 7 8 8 7 8 8 9 9 9 8 9
-4 -4 -4 -3 -3 -3 -3 -3 -3 -3 -3 -4 -4 -3 -2 -1 -1 -1 -2 -1 -2 -0 1 6 6 4 6 5 5 6 5 4 5 5 6 6 7 7 7 7 8 8 8 8 8 8 9
-4 -4 -4 -4 -3 -3 -3 -3 -3 -3 -4 -4 -4 -4 -4 -3 -1 -3 -3 -4 -0 -1 2 5 5 5 4 4 4 5 5 4 5 5 6 7 7 7 8 7 7 8 8 7 8 8 8
-5 -4 -4 -4 -4 -4 -4 -4 -4 -4 -4 -4 -5 -4 -5 -4 -3 -5 -5 -3 -3 -0 3 5 4 4 4 3 3 4 5 4 4 5 6 7 7 7 7 7 7 7 7 8 6 7 8
-4 -4 -4 -4 -4 -4 -4 -4 -4 -4 -4 -4 -5 -5 -5 -5 -5 -5 -5 -4 -2 1 2 6 6 5 4 4 3 4 5 5 5 6 6 6 7 7 7 7 7 7 7 8 7 4 7
-5 -5 -5 -4 -4 -4 -5 -4 -5 -5 -5 -5 -6 -5 -5 -5 -6 -6 -6 -5 -3 1 3 3 5 6 5 5 5 4 5 5 5 5 6 6 7 7 7 7 7 7 7 8 8 6 5
-5 -5 -4 -4 -4 -4 -4 -5 -5 -5 -6 -7 -7 -6 -5 -6 -7 -7 -7 -6 -3 -1 2 3 4 5 6 6 6 5 5 6 6 6 6 6 7 7 8 7 7 7 8 8 8 6 6
-5 -4 -4 -5 -4 -5 -5 -5 -5 -5 -7 -8 -8 -8 -6 -7 -7 -7 -6 -4 -2 -1 -1 0 2 4 5 6 6 6 6 6 6 6 6 6 7 8 8 8 7 7 7 7 8 8 8
-5 -4 -4 -4 -5 -5 -5 -6 -7 -7 -7 -7 -8 -8 -8 -7 -8 -7 -5 -2 -4 -3 -2 0 0 2 3 5 5 5 6 6 6 6 6 6 7 7 7 7 7 7 7 7 8 8 7
-4 -5 -5 -6 -5 -6 -7 -7 -7 -7 -7 -7 -8 -8 -7 -7 -8 -7 -5 -3 -6 -5 -3 -0 0 1 3 3 4 5 5 6 6 6 6 5 6 7 7 7 7 7 7 7 7 8 7
-5 -6 -6 -7 -8 -7 -7 -7 -7 -7 -7 -7 -8 -8 -8 -7 -6 -5 -5 -3 -6 -6 -4 -1 -0 1 1 1 2 4 4 6 5 6 6 6 6 6 6 5 7 7 7 7 7 7 7
-6 -6 -6 -6 -7 -7 -6 -7 -6 -7 -7 -7 -8 -8 -7 -8 -6 -4 -7 -6 -5 -5 -4 -2 -1 0 1 -1 1 1 3 4 5 5 5 5 5 5 6 7 8 7 7 7 8 7 6
-6 -6 -6 -6 -6 -7 -7 -7 -7 -7 -7 -7 -8 -8 -8 -7 -6 -7 -7 -6 -5 -4 -4 -3 -2 -1 0 -0 1 -1 2 3 2 3 5 4 5 5 5 6 7 6 7 8 8 8 8
-7 -7 -7 -7 -7 -7 -7 -7 -7 -7 -6 -7 -8 -6 -7 -7 -7 -8 -7 -4 -5 -4 -4 -3 -2 -1 0 1 -1 0 -0 1 3 3 4 3 4 5 5 6 6 7 7 8 8 8 8
-8 -8 -8 -8 -8 -8 -8 -8 -8 -8 -7 -7 -7 -6 -7 -7 -7 -6 -5 -6 -6 -5 -4 -3 -2 -2 -1 0 -1 -1 -1 -0 -0 3 3 3 4 4 4 5 4 6 6 7 7 7 8
-8 -9 -9 -9 -9 -9 -9 -9 -9 -8 -7 -7 -7 -8 -8 -7 -6 -6 -6 -6 -6 -5 -4 -3 -2 -2 -1 -0 -1 -2 -2 -2 -1 1 2 2 2 3 3 4 5 6 6 6 7 7 7
-9 -9 -9 -9 -9 -8 -8 -9 -9 -9 -9 -7 -7 -7 -7 -7 -6 -6 -6 -6 -6 -6 -5 -4 -3 -2 -1 -1 -2 -3 -2 0 -2 -0 0 -0 -1 -0 2 3 3 4 5 6 6 6 7
-9 -9 -9 -9 -9 -9 -9 -8 -8 -9 -9 -9 -7 -7 -7 -7 -7 -6 -6 -6 -6 -5 -5 -4 -3 -2 -3 -2 -2 -2 -1 0 2 1 0 -1 -1 -1 0 1 3 4 5 6 6 6 6
-9 -9 -9 -9 -8 -8 -9 -8 -8 -9 -9 -9 -8 -8 -7 -7 -7 -6 -6 -6 -6 -5 -5 -4 -4 -4 -4 -4 -3 -2 -1 0 1 2 1 1 -0 -1 0 0 1 4 5 6 6 6 6
-9 -9 -9 -8 -9 -8 -9 -9 -9 -9 -9 -9 -9 -8 -8 -8 -7 -6 -5 -6 -6 -6 -5 -5 -4 -4 -4 -3 -2 -2 -0 0 1 1 2 1 1 1 0 1 3 4 4 5 6 6 6
Height
3100 3101 3101 3102 3103 3104 3104 3105 3106 3107 3108 3109 3109 3109 3110 3111 3112 3113 3113 3113 3113 3113 3113 3114 3114 3113 3115 3114 3116 3111 3114 3114 3114 3114 3115 3116 3117 3120 3120 3119 3118 3116 3115 3113 3111 3108 3108
3092 3093 3094 3094 3095 3096 3097 3098 3099 3100 3101 3103 3103 3104 3104 3105 3107 3107 3108 3108 3107 3106 3107 3108 3108 3108 3108 3108 3110 3108 3110 3110 3111 3111 3113 3114 3115 3118 3118 3117 3116 3114 3112 3111 3106 3104 3105
3084 3084 3085 3085 3086 3087 3089 3090 3091 3092 3094 3096 3097 3098 3099 3100 3101 3102 3102 3103 3102 3102 3102 3102 3101 3100 3101 3104 3105 3104 3105 3106 3107 3108 3109 3111 3113 3116 3116 3115 3114 3112 3110 3108 3105 3103 3103
3073 3075 3076 3076 3077 3078 3080 3081 3083 3085 3086 3088 3089 3091 3093 3094 3095 3096 3096 3097 3097 3097 3097 3097 3096 3093 3090 3099 3099 3099 3101 3101 3104 3105 3107 3109 3111 3110 3111 3112 3110 3108 3107 3103 3099 3098 3102
3063 3063 3064 3066 3066 3067 3068 3071 3073 3076 3078 3079 3081 3083 3085 3088 3089 3090 3091 3092 3091 3092 3092 3091 3091 3088 3087 3090 3092 3095 3096 3098 3100 3102 3103 3105 3107 3107 3109 3110 3107 3102 3100 3097 3095 3096 3098
3052 3053 3054 3055 3056 3057 3058 3060 3062 3065 3068 3070 3071 3074 3077 3080 3082 3084 3085 3086 3086 3087 3086 3086 3087 3087 3086 3086 3086 3089 3092 3094 3099 3099 3100 3102 3103 3104 3105 3106 3102 3096 3096 3094 3095 3097 3094
3044 3044 3044 3045 3045 3046 3047 3049 3051 3054 3056 3060 3063 3064 3068 3072 3075 3077 3081 3082 3085 3082 3078 3081 3081 3079 3080 3082 3082 3085 3088 3091 3095 3097 3096 3099 3103 3100 3100 3099 3099 3096 3095 3093 3092 3093 3091
3035 3035 3036 3036 3037 3038 3039 3040 3041 3043 3046 3049 3052 3055 3058 3062 3066 3071 3074 3077 3080 3077 3069 3071 3072 3070 3075 3077 3078 3081 3085 3087 3091 3092 3094 3098 3094 3097 3097 3096 3095 3096 3094 3092 3090 3092 3092
3025 3026 3026 3026 3027 3029 3030 3032 3033 3035 3037 3039 3042 3045 3049 3053 3057 3066 3066 3073 3072 3073 3064 3059 3063 3062 3070 3071 3072 3076 3080 3081 3085 3089 3089 3089 3090 3092 3093 3093 3093 3093 3092 3090 3090 3091 3089
3015 3016 3016 3016 3017 3017 3019 3021 3023 3026 3029 3031 3033 3035 3039 3045 3056 3056 3062 3068 3068 3070 3063 3050 3053 3048 3058 3062 3059 3072 3076 3079 3081 3082 3085 3085 3088 3089 3089 3090 3091 3089 3089 3088 3087 3088 3085
3004 3005 3005 3006 3006 3007 3009 3010 3012 3016 3020 3023 3026 3028 3029 3035 3043 3050 3057 3056 3063 3069 3067 3049 3046 3043 3049 3048 3057 3059 3066 3073 3074 3077 3083 3080 3084 3085 3085 3086 3088 3087 3087 3086 3086 3086 3084
2993 2994 2995 2997 2997 2998 2999 3001 3003 3006 3010 3016 3018 3022 3023 3025 3034 3047 3053 3053 3059 3069 3051 3042 3038 3039 3044 3044 3048 3058 3059 3067 3072 3075 3076 3078 3081 3081 3082 3084 3084 3085 3085 3085 3085 3084 3082
2981 2983 2984 2986 2987 2989 2990 2992 2994 2996 3000 3006 3010 3015 3016 3020 3028 3037 3045 3052 3058 3050 3039 3036 3035 3037 3038 3042 3044 3051 3054 3057 3059 3066 3068 3073 3074 3076 3079 3080 3081 3083 3083 3082 3085 3081 3077
2970 2971 2973 2975 2977 2979 2981 2983 2985 2988 2991 2996 3001 3007 3010 3013 3020 3029 3037 3045 3042 3023 3031 3032 3034 3033 3036 3038 3039 3044 3050 3051 3054 3060 3065 3066 3069 3071 3073 3075 3077 3078 3080 3079 3079 3087 3078
2958 2960 2961 2963 2966 2968 2971 2974 2976 2980 2983 2988 2993 2996 3001 3007 3015 3023 3028 3029 3018 3017 3028 3028 3030 3032 3033 3033 3037 3041 3042 3044 3048 3052 3059 3061 3062 3067 3068 3071 3074 3074 3074 3076 3075 3079 3079
2945 2946 2947 2949 2953 2957 2960 2965 2968 2972 2976 2981 2984 2988 2991 3002 3011 3017 3021 3016 3006 3010 3021 3027 3028 3029 3026 3028 3032 3036 3035 3037 3042 3047 3056 3056 3060 3059 3062 3067 3068 3069 3071 3072 3070 3075 3073
2931 2932 2933 2935 2938 2942 2947 2952 2957 2962 2968 2976 2978 2979 2981 2994 3004 3009 3004 2991 2992 3001 3015 3019 3020 3023 3024 3024 3026 3028 3029 3033 3036 3042 3050 3052 3054 3056 3058 3057 3062 3066 3066 3067 3068 3067 3067
2916 2916 2917 2919 2922 2926 2931 2938 2944 2951 2960 2965 2968 2968 2973 2985 2992 2992 2982 2969 2995 3000 3011 3013 3017 3019 3019 3021 3023 3022 3023 3026 3032 3036 3038 3043 3049 3050 3052 3054 3058 3060 3061 3063 3062 3063 3064
2898 2898 2898 2901 2905 2909 2915 2923 2931 2939 2946 2953 2955 2961 2970 2974 2973 2970 2976 2975 2983 2991 2999 3010 3012 3014 3016 3016 3019 3020 3019 3024 3024 3028 3032 3039 3042 3048 3047 3052 3051 3052 3056 3057 3058 3060 3059
2881 2879 2880 2884 2889 2894 2901 2909 2918 2926 2935 2942 2947 2951 2959 2959 2962 2964 2964 2963 2976 2986 2997 3005 3008 3013 3013 3013 3012 3013 3016 3018 3019 3023 3030 3033 3035 3035 3038 3045 3047 3048 3049 3051 3052 3053 3055
2863 2862 2865 2869 2874 2879 2887 2896 2904 2913 2923 2930 2928 2930 2933 2938 2942 2941 2963 2967 2973 2979 2985 2995 3001 3005 3008 3009 3007 3008 3013 3011 3012 3017 3022 3025 3027 3033 3036 3037 3040 3042 3043 3045 3045 3048 3048
2846 2847 2849 2853 2857 2863 2871 2879 2890 2900 2910 2913 2912 2920 2928 2934 2941 2947 2952 2957 2963 2969 2978 2981 2989 2993 3000 3003 3007 3009 3005 3004 3010 3012 3015 3020 3022 3028 3029 3033 3033 3038 3038 3038 3040 3041 3042
2828 2830 2834 2837 2840 2846 2853 2862 2873 2884 2891 2889 2897 2914 2923 2923 2931 2938 2938 2940 2948 2967 2973 2979 2986 2995 2999 2998 3005 2996 3000 2999 3002 3007 3009 3014 3018 3022 3021 3028 3031 3026 3030 3031 3034 3036 3038
2812 2813 2815 2819 2824 2830 2837 2845 2855 2867 2875 2881 2885 2904 2911 2914 2925 2926 2935 2942 2951 2961 2966 2973 2984 2988 2991 3001 2997 2999 2996 2996 2992 2998 3002 3007 3015 3017 3019 3025 3020 3021 3025 3028 3029 3030 3032
2796 2796 2798 2801 2805 2811 2819 2828 2838 2850 2864 2870 2877 2891 2900 2910 2918 2925 2933 2939 2948 2955 2960 2967 2973 2977 2992 2995 2994 2993 2992 2994 2989 2993 2999 3003 3011 3010 3013 3015 3018 3018 3021 3023 3025 3027 3028
2780 2780 2781 2783 2787 2794 2802 2812 2823 2835 2849 2862 2869 2882 2895 2906 2911 2921 2928 2934 2941 2948 2955 2956 2965 2977 2984 2985 2987 2984 2983 2989 2992 2994 2998 3004 3005 3010 3007 3007 3008 3012 3017 3021 3023 3019 3022
2764 2763 2762 2764 2768 2775 2786 2796 2809 2822 2835 2848 2862 2875 2890 2899 2910 2919 2920 2927 2934 2942 2946 2952 2959 2968 2971 2972 2977 2980 2982 2986 2988 2992 2995 3001 3002 3003 3005 3005 3002 3006 3012 3017 3016 3019 3017
2750 2743 2740 2744 2752 2760 2772 2784 2798 2813 2827 2841 2855 2871 2883 2893 2906 2907 2914 2919 2927 2934 2938 2944 2959 2961 2957 2965 2970 2973 2974 2977 2983 2987 2987 2992 3000 3001 3003 3003 3000 3003 3007 3008 3011 3011 3015
2739 2731 2722 2723 2738 2752 2764 2779 2792 2809 2824 2839 2851 2870 2881 2894 2901 2905 2913 2917 2921 2927 2936 2941 2943 2948 2952 2951 2962 2967 2970 2973 2973 2980 2985 2986 2988 2992 2996 2994 2998 2999 3002 3003 3005 3005 3008
Wind_Speed
34 35 35 35 36 36 35 34 33 32 32 31 31 29 28 27 28 27 27 27 27 28 29 28 28 27 23 24 15 24 14 15 14 12 10 10 9 9 12 14 13 15 16 14 16 18 17
36 36 36 36 36 36 36 36 36 35 35 34 33 32 30 28 28 26 25 28 27 28 29 29 29 28 28 27 15 23 15 14 15 14 12 13 11 9 17 17 16 16 16 16 18 12 13
39 40 38 38 37 37 37 36 36 34 35 35 35 34 32 30 29 26 26 26 27 27 27 28 28 31 31 24 20 22 18 14 15 15 14 12 13 14 11 14 12 17 19 17 21 17 14
40 42 42 41 41 39 39 38 37 36 35 35 35 34 34 32 29 28 26 26 26 26 25 27 28 30 32 23 21 23 19 14 15 16 15 10 14 17 14 14 16 20 19 21 22 21 16
39 40 41 42 43 44 42 42 41 39 37 36 36 35 34 33 31 30 27 26 26 26 25 26 25 29 29 25 21 21 22 16 15 17 17 17 16 16 11 15 19 20 21 17 12 5 12
36 38 39 41 42 43 44 44 44 44 42 40 38 37 36 34 33 31 28 27 26 26 27 25 26 25 17 19 14 16 21 18 15 16 17 19 15 16 15 14 23 22 12 15 11 10 9
34 35 35 36 37 38 40 42 44 45 45 45 44 40 38 37 33 32 29 26 24 24 28 25 18 21 10 12 15 16 15 20 18 18 19 17 17 21 17 20 24 18 17 19 11 12 9
37 37 37 37 37 36 36 36 38 41 44 45 46 45 42 39 36 33 30 26 19 28 35 32 30 30 24 20 19 16 18 24 24 25 19 18 27 20 18 17 14 14 16 17 12 6 9
40 40 40 41 41 41 40 38 36 35 36 39 43 47 46 42 39 32 33 25 25 25 36 41 36 36 27 25 23 17 23 24 26 24 24 26 21 21 18 17 13 15 16 19 14 11 16
41 42 43 43 43 44 43 43 41 37 34 33 34 41 45 45 38 35 30 23 23 19 25 35 30 35 35 31 34 27 26 27 25 27 27 26 23 14 16 16 14 19 13 16 15 13 15
41 41 40 41 41 41 40 40 42 41 38 34 31 32 36 42 39 32 21 25 15 11 7 7 14 22 18 38 20 27 34 32 32 27 25 28 26 24 20 19 14 17 10 9 11 14 19
38 37 37 36 35 37 38 39 39 39 39 37 35 29 30 35 37 25 24 18 20 9 13 7 17 20 22 25 32 9 30 35 30 29 26 26 23 22 24 18 17 15 15 13 14 14 15
38 38 37 36 37 37 36 35 36 37 35 36 37 32 30 29 29 26 27 24 15 20 17 17 17 15 18 19 28 25 28 39 41 38 35 29 28 24 19 20 14 13 14 13 2 9 10
39 37 37 37 36 36 38 38 36 34 34 32 36 35 33 29 23 33 30 30 21 38 38 6 14 17 21 19 22 29 31 41 40 32 32 30 27 28 23 21 19 16 19 15 6 4 9
38 39 40 40 38 37 35 35 35 35 33 31 31 37 37 32 24 35 35 38 45 44 27 36 11 18 20 20 20 29 35 38 40 42 35 31 32 23 27 21 23 20 22 19 16 5 8
41 43 43 43 43 42 38 38 36 36 33 27 30 35 39 31 25 31 36 42 49 51 33 23 35 20 17 23 26 28 33 33 37 38 35 28 23 27 34 27 23 24 20 16 16 4 4
43 47 48 46 44 44 45 43 41 38 32 27 29 32 37 29 32 34 38 63 63 56 44 36 28 27 35 25 28 29 33 26 34 36 39 35 29 19 26 30 26 23 25 17 19 21 5
49 50 48 47 47 48 48 45 40 40 35 34 38 42 32 33 42 45 55 63 57 43 38 47 32 31 30 38 19 25 29 32 25 37 42 42 18 26 26 23 22 28 22 26 21 12 18
51 53 53 51 49 46 40 42 44 42 41 42 46 46 31 34 51 55 53 55 52 46 44 36 37 29 28 32 26 29 28 27 28 32 40 38 37 22 22 25 24 26 25 24 24 21 22
54 49 44 43 38 42 40 44 44 45 45 48 51 48 46 41 46 51 54 57 42 46 41 40 32 30 25 30 29 21 25 29 25 28 35 37 34 29 19 28 25 24 24 26 28 21 17
49 47 43 41 42 44 42 43 42 49 51 52 61 45 56 55 54 58 44 31 42 39 49 37 39 35 31 25 25 23 24 18 26 30 35 31 34 37 32 28 27 26 27 27 30 27 23
46 45 46 46 45 45 44 45 56 51 53 60 67 55 56 41 53 47 50 45 42 38 41 52 43 38 31 36 24 28 25 24 24 25 31 31 29 32 37 30 35 25 29 31 27 29 26
44 45 45 47 47 47 48 47 51 59 60 67 70 67 37 61 33 47 54 56 48 37 36 44 49 33 30 34 25 20 26 29 22 23 33 24 25 28 34 32 30 36 32 28 25 30 27
41 43 45 47 49 50 49 47 53 59 63 69 72 67 52 38 51 39 48 47 42 34 38 38 44 44 40 24 31 28 17 27 7 25 25 22 22 31 21 26 23 30 30 30 27 25 24
40 39 40 42 44 46 50 51 53 58 69 72 69 70 68 37 34 48 35 39 37 37 36 38 41 42 35 32 26 19 13 11 11 20 22 22 13 19 18 27 26 23 22 19 21 27 26
36 38 39 41 44 47 50 54 55 60 66 68 71 56 67 63 36 30 35 34 38 36 36 42 35 36 36 33 27 13 8 16 5 4 20 30 9 15 11 9 14 25 25 24 25 28 24
34 37 40 40 39 44 50 51 57 58 64 66 65 49 54 56 48 32 34 36 32 31 37 36 38 38 37 37 39 25 21 21 16 16 14 23 30 18 16 13 17 21 27 24 27 27 17
35 38 43 44 40 40 45 43 52 53 54 58 59 44 55 53 38 30 36 32 34 35 38 38 34 39 28 30 33 20 17 24 24 26 21 23 23 24 13 9 18 11 24 31 30 27 26
16 17 13 30 38 37 43 41 48 50 48 58 54 58 53 46 42 37 33 34 28 26 33 37 45 40 33 24 20 22 12 24 28 23 21 26 28 23 19 23 17 15 26 18 22 18 19
Wind_Direction
273 274 271 270 268 267 265 265 266 267 269 271 271 272 273 274 275 275 274 272 269 270 272 274 275 277 275 274 274 266 276 279 269 256 252 241 233 241 253 270 277 269 278 278 283 280 275
274 273 273 270 270 270 269 267 266 266 267 268 268 269 270 271 273 275 275 274 272 271 271 272 276 276 275 270 264 277 269 268 265 251 245 234 231 243 266 271 279 277 284 276 281 275 259
271 274 272 271 269 268 268 268 268 267 267 268 269 269 269 270 272 275 276 275 276 276 275 275 274 272 267 270 262 259 262 260 256 247 239 232 235 247 256 277 281 274 278 279 269 264 261
268 268 270 269 267 266 267 267 265 266 266 266 267 268 269 269 270 271 274 276 277 277 277 276 275 272 269 273 257 255 257 249 246 242 234 209 242 244 243 264 276 274 269 266 270 300 254
270 269 268 267 266 266 264 263 263 263 260 261 264 265 265 267 268 269 271 273 276 277 274 275 277 275 279 270 260 252 245 239 242 238 233 220 233 235 252 262 273 264 260 265 259 275 243
275 272 270 269 267 265 263 261 260 259 259 258 256 259 262 262 264 266 266 270 275 276 275 270 272 275 276 271 265 242 236 221 226 230 230 226 234 241 246 244 255 276 290 278 281 251 254
275 274 274 272 271 270 268 266 261 258 255 254 255 252 255 257 257 259 263 267 278 286 266 261 258 250 228 275 248 240 229 217 206 220 215 221 227 232 234 243 254 287 292 285 203 259 240
275 274 273 273 272 271 271 270 268 263 259 255 252 252 249 250 252 253 256 257 259 265 273 268 257 256 241 235 243 240 218 208 205 213 214 214 232 234 245 260 272 277 276 270 258 223 240
273 273 272 271 270 270 269 268 267 267 265 260 256 252 249 247 246 249 250 251 254 272 279 270 263 261 243 239 238 211 209 212 209 214 215 217 231 235 237 252 256 259 260 263 286 271 263
273 272 271 269 268 267 266 265 264 262 262 263 260 255 252 246 246 242 247 245 252 273 292 279 268 259 235 234 244 223 211 215 211 220 219 227 234 233 227 242 240 257 263 260 264 283 275
268 267 267 267 267 266 265 263 261 259 258 259 260 258 251 248 243 237 228 223 229 243 287 286 237 229 223 224 241 241 206 214 216 215 217 230 229 232 235 235 236 255 290 255 270 267 275
265 264 263 263 263 264 263 262 261 259 254 250 254 255 254 249 237 229 218 208 192 189 240 239 212 218 232 221 220 221 213 204 219 220 224 233 232 232 236 240 243 251 246 259 259 254 264
264 266 266 263 261 260 261 262 260 260 257 247 247 247 250 249 236 191 207 202 185 218 229 236 214 210 223 215 213 213 209 203 206 210 223 227 233 229 229 230 219 227 233 244 277 256 237
266 266 266 265 265 262 257 257 257 256 254 250 241 242 244 245 233 192 195 194 214 230 221 172 239 216 218 204 219 214 210 210 212 210 216 218 228 222 219 223 218 217 223 235 241 184 302
265 270 272 267 264 262 255 251 253 251 252 248 239 236 238 236 227 190 197 202 213 222 228 232 247 227 221 220 217 212 215 215 212 206 216 214 230 230 220 219 224 238 221 239 254 289 266
271 276 275 269 262 256 253 249 250 248 245 238 236 234 235 230 217 201 207 219 226 224 226 238 233 231 230 221 216 215 214 218 214 212 214 223 221 229 221 217 226 232 238 240 229 209 232
275 276 273 268 262 255 252 252 248 243 230 220 221 226 232 218 200 203 213 222 227 225 224 244 252 257 244 250 221 224 222 219 214 212 213 215 241 241 215 205 213 220 239 241 239 231 232
278 276 272 266 260 256 253 249 244 234 217 212 213 218 232 208 192 206 221 226 231 230 228 235 244 258 260 243 247 247 227 224 218 212 211 209 237 246 209 214 220 229 225 227 236 217 266
280 278 271 265 260 254 239 231 230 224 211 210 210 215 213 218 201 214 226 232 232 228 225 234 238 241 241 261 269 252 242 225 222 210 209 211 227 231 228 227 220 230 228 234 240 236 227
281 273 267 259 245 243 239 226 222 219 212 209 206 207 209 212 224 224 223 231 238 229 228 232 237 240 248 244 249 268 227 229 227 211 205 210 217 226 235 217 220 225 226 227 230 236 228
275 267 260 254 247 246 240 223 224 215 213 210 207 207 206 207 212 218 219 226 234 232 222 215 232 233 241 246 250 262 242 243 211 220 210 207 218 226 236 237 225 222 226 230 242 223 205
265 258 259 255 250 243 240 232 216 221 211 214 210 204 208 217 220 213 211 223 223 228 217 221 223 223 233 236 231 253 267 231 216 206 204 211 222 225 238 233 245 235 244 231 233 239 243
263 261 258 255 250 248 243 233 219 212 222 211 215 216 215 217 223 212 214 218 223 220 229 220 221 224 232 228 242 246 243 231 217 207 209 210 212 220 234 234 244 252 236 248 234 234 239
265 262 258 253 249 244 236 233 225 212 212 217 216 214 201 207 211 218 225 220 225 222 227 218 221 222 225 246 238 245 256 230 210 196 195 202 220 226 229 227 240 250 249 244 250 252 248
269 262 256 251 244 238 233 228 220 212 209 221 214 212 209 207 215 219 220 220 223 223 227 222 220 220 217 236 251 261 216 228 229 189 200 189 222 228 236 223 244 240 232 231 231 246 249
267 261 256 252 242 234 229 225 222 213 206 203 213 205 213 215 210 221 214 213 218 217 221 220 216 212 224 231 228 226 203 210 229 221 215 219 237 254 233 210 228 237 227 244 245 259 245
269 265 260 252 238 230 222 219 219 213 209 208 204 201 204 211 216 218 216 214 209 211 218 218 209 216 218 211 222 232 235 224 220 203 195 222 233 256 247 244 250 240 237 229 245 240 260
281 274 259 243 234 222 214 210 204 202 202 202 209 202 194 208 207 218 206 202 205 209 217 212 212 212 208 202 206 214 227 219 223 237 212 219 222 236 234 239 238 217 226 224 237 240 244
289 287 268 215 206 200 198 193 196 190 192 196 203 194 196 203 206 218 216 209 199 210 218 211 212 212 216 209 199 205 212 215 211 234 229 210 222 224 224 232 258 260 231 223 227 234 243